Location: Unspecified
(0.0000°N, 0.0000°E)
Time: 23:58:02
(UTC+00:00)

Hubble Space Telescope - Pass Details

Date: 18 July 2019
Orbit: 536 x 540 km, 28.5° (Epoch: 22 July)

Event Time Altitude Azimuth Distance (km) Brightness Sun altitude
Rises 18:58:40 0° 262° (W) 2,673 5.5 -12.2°
Reaches altitude 10° 19:02:13 10° 231° (SW) 1,785 3.8 -13.0°
Maximum altitude 19:03:53 12° 207° (SSW) 1,655 3.3 -13.4°
Drops below altitude 10° 19:05:32 10° 183° (S) 1,787 3.2 -13.8°
Enters shadow 19:06:49 - 169° (SSE) 2,038 3.4 -14.1°
